Погода в Эзе

Франция     43°43′47″N   7°21′41″E
темп.,
°C
ветер,
м/с
пор.,
м/с
влажн.,
%
обл.,
%
осадки,
мм/ч
давл.,
гПа
погр.,
м
2 июля, сб
сб223:00+22ссв22605 0.0 101668
02:00+21с22615 0.0 101756
05:00+20ссз22635 0.0 101762
08:00+23ссв11545 0.0 1018237
11:00+26юв22490 0.0 1019619
14:00+28ююв32430 0.0 1019730
17:00+27ююв32410 0.0 1018626
20:00+27ююз21390 0.0 1018342
3 июля, вс
вс323:00+24ссз33481 0.0 101853
02:00+23ссз34500 0.0 101762
05:00+22ссз33390 0.0 101749
08:00+26ссз23320 0.0 101792
11:00+30вюв23430 0.0 1017696
14:00+30юв33360 0.0 1017754
17:00+30ююв32350 0.0 1016707
20:00+27ююз1142100 0.0 1016204
4 июля, пн
пн423:00+25ссз224796 0.0 101645
02:00+24ссз2250100 0.0 101635
05:00+24зсз11455 0.0 101419
08:00+26ссв23435 0.0 1015181
11:00+27ююв32520 0.0 1016594
14:00+29юв33434 0.0 1015606
17:00+28ююв33470 0.0 1014520
20:00+26ююв11560 0.0 1013211
5 июля, вт
вт523:00+25ссз12500 0.0 101432
02:00+23ссз23480 0.0 101446
05:00+22ссз22540 0.0 101426
08:00+25зсз11430 0.0 1015190
11:00+28ю43470 0.0 1015854
14:00+28ююв33508 0.0 1015550
17:00+28ююв22526 0.0 1015491
20:00+28вюв11450 0.0 1015262
6 июля, ср
ср623:00+25ссз33510 0.0 101661
02:00+24ссз33545 0.0 101658
05:00+24с335184 0.0 101554
08:00+27ссв124443 0.0 1016146
11:00+28юв224931 0.0 1018526
14:00+29юв334653 0.0 1018796
17:00+28юв224320 0.0 1017562
20:00+27ю23440 0.0 1016296